Flag for U.S.A. Weather past 2 weeks in Glendale, California, U.S.A.

Now
87 °F

Sunny.


Feels Like: 84 °F
Forecast: 63 / 87 °F
Wind: 9 mph from Southeast

Location: Burbank-Glendale-Pasadena Airport

Current Time: Oct 24, 2014 at 4:59:58 PM

Latest Report: Oct 24, 2014 at 3:53 PM


Visibility: 10 mi

Pressure: 29.90 "Hg

Humidity: 11%

Dew point: 26 °F

Location of GlendaleLocation

Historic Weather in Glendale — Graph

°F

Glendale temperature yesterday

Maximum temperature yesterday: 87 °F (at 1:53 PM)
Minimum temperature yesterday: 58 °F (at 5:53 AM)
Average temperature yesterday: 72 °F

Past Weeks' High & Low Weather Summary

 TemperatureHumidityPressure
High89 °F (Oct 24, 2:53 PM)97% (Oct 13, 7:53 AM)30.00 "Hg (Oct 13, 7:53 AM)
Low56 °F (Oct 18, 6:53 AM)11% (Oct 24, 3:53 PM)29.80 "Hg (Oct 18, 4:53 PM)
Average68 °F64%29.90 "Hg
* Reported Oct 9 3:53 PM — Oct 24 3:53 PM, Glendale, Weather by CustomWeather, © 2014

Note: Actual official high and low records may vary slightly from our data, if they occured in-between our weather recording intervals... More about our weather records

Advertising

Glendale weather history for previous 24 hours

 ConditionsComfort  
Time TempWeatherWind HumidityBarometerVisibility
3:53 PM
Oct 24
87 °FSunny.9 mph11%29.90 "Hg10 mi
2:53 PM89 °FSunny.12 mph13%29.89 "Hg10 mi
1:53 PM88 °FSunny.7 mph13%29.90 "Hg10 mi
12:53 PM87 °FSunny.6 mph18%29.93 "Hg10 mi
11:53 AM85 °FSunny.9 mph20%29.95 "Hg10 mi
10:53 AM80 °FSunny.3 mph25%29.96 "Hg10 mi
9:53 AM73 °FSunny.No wind33%29.97 "Hg9 mi
8:53 AM66 °FSunny.No wind40%29.97 "Hg10 mi
7:53 AM59 °FClear.No wind48%29.96 "Hg10 mi
6:53 AM58 °FClear.No wind47%29.94 "Hg10 mi
5:53 AM58 °FClear.3 mph50%29.93 "Hg10 mi
4:53 AM58 °FClear.No wind51%29.93 "Hg10 mi
3:53 AM60 °FClear.No wind47%29.92 "Hg10 mi
2:53 AM61 °FClear.No wind52%29.93 "Hg10 mi
1:53 AM62 °FClear.No wind50%29.94 "Hg10 mi
12:53 AM65 °FClear.No wind45%29.94 "Hg10 mi
11:53 PM
Oct 23
65 °FClear.No wind49%29.93 "Hg10 mi
10:53 PM68 °FClear.No wind40%29.93 "Hg10 mi
9:53 PM69 °FClear.3 mph44%29.92 "Hg10 mi
8:53 PM71 °FClear.No wind42%29.91 "Hg10 mi
7:53 PM76 °FClear.No wind43%29.90 "Hg10 mi
6:53 PM79 °FSunny.3 mph23%29.89 "Hg10 mi
5:53 PM83 °FSunny.3 mph19%29.88 "Hg10 mi
4:53 PM85 °FSunny.5 mph16%29.88 "Hg10 mi
Weather by CustomWeather, © 2014

See weather overviewHow to use our weather pages